Погода в Старице

Погода в Старице : погода сейчас, прогноз погоды и архив. Всё, что Вы хотите узнать о погоде в Старице!

Поиск расширенной информации на нашем сайте:

Другие новости

Новости СМИ2

Главная страница сайта

Новости сайта

03.07.2017

Напоминаем, что на нашем специализированном сайте Метеоцентр.Азия вы можете получить высокодетализированные автоматические прогнозы погоды по пунктам России, СНГ и мира в авиационном формате (включающие направление и скорость ветра, видимость, явления погоды, количество и форму облачности, нижнюю и верхнюю границу облачности).


Погода в Старице - сегодня

Время (UTC), дата Ветер
(°,м/с) 
Видим.   Явления Облачность Т
(°С)
Тd
(°С)
f(%) Тe
(°С)
Pmin
(гПа)
dP
(гПа)
Po
(мм)
O2
(г/м3)
Тmin Tmax R s Состояние
почвы
09 20.01.18 130 (ЮВ) 4000 м  слаб. снег  10/10 300 м 
[Frnb|Ns]
-10 -12.2 84 -13  1011  0.1  740  311           
12 20.01.18 100 (В) 4000 м  слаб. снег  10/8 300 м средняя 
[Frnb|As op]
-9.3 -11.7 83 -12  1010.1  -0.9  740  310           
15 20.01.18 110 (В) 4000 м  слаб. снег  10/10 2000 м 
[Ns]
-9.4 -11.5 85 -11  1010.1  740  310         
18 20.01.18 070 (В) 10 км  слаб. снег  10/10 2000 м 
[Ns]
-10.2 -11.7 89 -10  1009.7  -0.4  739  311    -9.2     
21 20.01.18 130 (ЮВ) 10 км  слаб. снег  10/10 2000 м 
[Ns]
-11.3 -12.6 90 -11  1009.8  739  312           
00 21.01.18 тихо ()   10 км  слаб. снег  10/10 2000 м 
[As trans]
-14.3 -15.8 88 -14  1010.3  0.1  739  316           
03 21.01.18 310 (СЗ) 10 км  {снег}  10/10 2000 м 
[As trans]
-13.3 -14.8 88 -13  1010.1  739  314  -14.5    0.7     
06 21.01.18 320 (СЗ) 10 км  слаб. снег  10/10 2000 м 
[Ac As]
-13.1 -14.6 88 -13  1010.7  0.5  740  314  -14.5    0.3  12  неравномерный
сухой снег
100% 
09 21.01.18 330 (СЗ) 10 км  {снег}  8/8 2000 м средняя, верхняя 
[Ac lent|Ci fib]
-11.3 -12.8 89 -11  1010.9  0.3  740  312           
12 21.01.18 020 (С) 10 км  слаб. ливневой снег  9/9 600 м кучево-дожд. 
[Cb cap]
-9.2 -11.1 86 -9  1011.3  0.6  740  310           
15 21.01.18 310 (СЗ) 10 км  слаб. снег{ливн. осадки}  10/0 верхняя 
[Cc]
-9.8 -11.2 89 -12  1012.3  741  311      0.4     
18 21.01.18 290 (З) 10 км  {ливн. осадки, снег}  ясно 
-13.3 -14.4 91 -13  1012.8  0.2  741  315    -9.2  0.6     
21 21.01.18 290 (З) 10 км    ясно 
-13.3 -14.8 88 -15  1013.3  0.5  742  315           
00 22.01.18 220 (ЮЗ) 10 км    9/9 600 м 
[Sc]
-15.8 -17.4 87 -16  1013.5  742  319           
03 22.01.18 220 (ЮЗ) 4000 м  слаб. ливневой снег  10/10 300 м кучево-дожд. 
[Cb cap]
-13.2 -14.7 88 -13  1014  0.7  742  316  -17.4    0.5     
06 22.01.18 220 (ЮЗ) 4000 м  слаб. ливневой снег  10/10 300 м кучево-дожд. 
[Cb cap]
-13.2 -14.7 88 -13  1014  0.7  742  316  -17.4    0.5     
09 22.01.18 240 (ЮЗ) 20000 м  {ливн. осадки}  ясно 
-10.1 -12.3 84 -12  1015.9  1.2  744  312           
12 22.01.18 220 (ЮЗ) н/о    н/о 
-9.5 -12 82 -12  1016.9  745  312           
15 22.01.18 210 (ЮЗ) 4000 м  слаб. снег  10/10 2000 м 
[As trans]
-9 -10.6 88 -11  1018.6  1.7  746  312      0.7     
18 22.01.18 200 (Ю) 10 км  слаб. снег  10/10 2000 м 
[As trans]
-9.2 -10.6 90 -11  1019.7  747  312    -8.8  0.6     
21 22.01.18 220 (ЮЗ) 10 км  {снег}  9/9 600 м 
[Sc]
-7.3 -2.9 100 -9  1020.5  747  310           
00 23.01.18 230 (ЮЗ) н/о    н/о 
-6.9 -8.8 86 -10  1021.6  1.1  748  310           
03 23.01.18 210 (ЮЗ) 10 км    9/9 300 м 
[Sc]
-7.6 -9.5 86 -11  1022.8  1.1  749  311  -9.5    0.2     
06 23.01.18 200 (Ю) 10 км    9/9 300 м 
[Sc]
-8.3 -9.9 88 -11  1023.3  0.4  749  312  -9.5    0.0  13  неравномерный
сухой снег
100% 
09 23.01.18 230 (ЮЗ) 10 км    9/9 600 м 
[Sc]
-7.5 -10.1 82 -10  1024.3  1.1  750  312           
Время (UTC), дата Ветер
(°,м/с) 
Видим.   Явления Облачность Т
(°С)
Тd
(°С)
f(%) Тe
(°С)
Pmin
(гПа)
dP
(гПа)
Po
(мм)
O2
(г/м3)
Тmin Tmax R s Состояние
почвы

Для получения пояснительной информации подведите курсор к названию столбца.

ПОГОДА в Старице - архив

Всё, что Вы хотите узнать о погоде в Старице - удобно и подробно!

Выберите нужную дату (начиная с 1 января 2015* года) и нажмите кнопку "Найти".
Будут отображены архивные сводки погоды по пункту Старица, начиная с указанной даты.


Отображать данные в формате CSV (для использования в таблицах Excel)


Внимание! Наш архив погоды предназначен исключительно для личного некоммерческого использования в познавательных целях. Если Вам необходимы официальные справки о состоянии погоды (для производственных, юридических, коммерческих и т.п. целей), обращайтесь в органы Росгидромета.

*Примечание: данная дата относится к архиву по метеостанциям СССР (Россия, СНГ, Балтия).
Архив по метеостанциям Зарубежной Европы и Азии (кроме Китая) хранится 10 дней, по другим регионам земного шара (Китай, Африка, Америка, Австралия, Океания) - 1 день.

Старица - район местоположения метеостанции


Название, широта, долгота, высота метеостанции:
Старица 56.5°ш. 34.9°д. 181 м над ур. моря [Российская Федерация]

Дополнительная информация

В oтличие oт бoльшинства пoгoдных сайтoв мы публикуем пoдрoбную метеoинфoрмацию в детальнoм прoфессиoнальнoм фoрмате.

Характеристики температуры и влажнoсти вoздуха измеряются на высoте 2 м в тени вдали oт зданий и деревьев.
Скoрoсть ветра измеряется на высoте 10 м (на урoвне рoста челoвека скoрoсть ветра ниже в 1.5-2 раза). Если метеoстанция нахoдится в гoрoде или в лесу, тo скoрoсть ветра занижена на 2-4 м/с пo сравнению с oткрытым местoм. Скoрoсть ветра над акватoриями крупных рек и oзёр, а также на вершинах хoлмoв на 2-5 м/с выше, чем в oбычных услoвиях.
Атмoсфернoе давление в разных тoчках местнoсти мoжет значительнo oтличаться oт давления на метеoстанции, в зависимoсти oт услoвий рельефа (при пoдъёме на 10 м давление пoнижается примернo на 1 мм рт.ст.).